Location: Antin
(43.3330°N, 0.2804°E)
Time: 23:02:28
(UTC+00:00)

SME Rocket - Pass Details

Date: 16 October 2021
Orbit: 550 x 2651 km, 99.9° (Epoch: 04 December)

Event Time Altitude Azimuth Distance (km) Brightness Sun altitude
Rises 17:37:25 0° 9° (N) 2,758 6.2 -5.0°
Reaches altitude 10° 17:39:23 10° 4° (N) 1,913 5.5 -5.4°
Maximum altitude 17:43:13 51° 288° (WNW) 846 4.3 -6.1°
Drops below altitude 10° 17:48:11 10° 213° (SSW) 2,474 6.7 -7.0°
Sets 17:51:01 0° 209° (SSW) 3,676 7.6 -7.5°
